Year,Month,Day,Hour,Minute,Value (Times are PST for temperature in C)
2016,05,30,00,00,9.80
2016,05,30,00,01,9.80
2016,05,30,00,02,9.80
2016,05,30,00,03,9.80
2016,05,30,00,04,9.80
2016,05,30,00,05,9.80
2016,05,30,00,06,9.80
2016,05,30,00,07,9.80
2016,05,30,00,08,9.80
2016,05,30,00,09,9.80
2016,05,30,00,10,9.80
2016,05,30,00,11,9.80
2016,05,30,00,12,9.80
2016,05,30,00,13,9.80
2016,05,30,00,14,9.80
2016,05,30,00,15,9.80
2016,05,30,00,16,9.80
2016,05,30,00,17,9.80
2016,05,30,00,18,9.80
2016,05,30,00,19,9.80
2016,05,30,00,20,9.80
2016,05,30,00,21,9.80
2016,05,30,00,22,9.80
2016,05,30,00,23,9.80
2016,05,30,00,24,9.80
2016,05,30,00,25,9.80
2016,05,30,00,26,9.80
2016,05,30,00,27,9.90
2016,05,30,00,28,9.90
2016,05,30,00,29,9.90
2016,05,30,00,30,9.90
2016,05,30,00,31,9.90
2016,05,30,00,32,9.90
2016,05,30,00,33,9.90
2016,05,30,00,34,9.90
2016,05,30,00,35,9.90
2016,05,30,00,36,9.80
2016,05,30,00,37,9.80
2016,05,30,00,38,9.80
2016,05,30,00,39,9.80
2016,05,30,00,40,9.80
2016,05,30,00,41,9.70
2016,05,30,00,42,9.70
2016,05,30,00,43,9.70
2016,05,30,00,44,9.70
2016,05,30,00,45,9.60
2016,05,30,00,46,9.60
2016,05,30,00,47,9.60
2016,05,30,00,48,9.60
2016,05,30,00,49,9.60
2016,05,30,00,50,9.60
2016,05,30,00,51,9.50
2016,05,30,00,52,9.50
2016,05,30,00,53,9.50
2016,05,30,00,54,9.50
2016,05,30,00,55,9.50
2016,05,30,00,56,9.40
2016,05,30,00,57,9.40
2016,05,30,00,58,9.40
2016,05,30,00,59,9.40
2016,05,30,01,00,9.40
2016,05,30,01,01,9.40
2016,05,30,01,02,9.40
2016,05,30,01,03,9.40
2016,05,30,01,04,9.30
2016,05,30,01,05,9.30
2016,05,30,01,06,9.30
2016,05,30,01,07,9.30
2016,05,30,01,08,9.30
2016,05,30,01,09,9.30
2016,05,30,01,10,9.30
2016,05,30,01,11,9.20
2016,05,30,01,12,9.20
2016,05,30,01,13,9.10
2016,05,30,01,14,9.10
2016,05,30,01,15,9.10
2016,05,30,01,16,9.00
2016,05,30,01,17,9.00
2016,05,30,01,18,8.90
2016,05,30,01,19,8.90
2016,05,30,01,20,8.90
2016,05,30,01,21,8.90
2016,05,30,01,22,8.80
2016,05,30,01,23,8.80
2016,05,30,01,24,8.80
2016,05,30,01,25,8.80
2016,05,30,01,26,8.80
2016,05,30,01,27,8.80
2016,05,30,01,28,8.80
2016,05,30,01,29,8.80
2016,05,30,01,30,8.80
2016,05,30,01,31,8.70
2016,05,30,01,32,8.70
2016,05,30,01,33,8.70
2016,05,30,01,34,8.70
2016,05,30,01,35,8.70
2016,05,30,01,36,8.70
2016,05,30,01,37,8.70
2016,05,30,01,38,8.70
2016,05,30,01,39,8.70
2016,05,30,01,40,8.60
2016,05,30,01,41,8.60
2016,05,30,01,42,8.60
2016,05,30,01,43,8.60
2016,05,30,01,44,8.60
2016,05,30,01,45,8.60
2016,05,30,01,46,8.60
2016,05,30,01,47,8.60
2016,05,30,01,48,8.60
2016,05,30,01,49,8.60
2016,05,30,01,50,8.60
2016,05,30,01,51,8.60
2016,05,30,01,52,8.60
2016,05,30,01,53,8.50
2016,05,30,01,54,8.50
2016,05,30,01,55,8.50
2016,05,30,01,56,8.50
2016,05,30,01,57,8.40
2016,05,30,01,58,8.40
2016,05,30,01,59,8.40
2016,05,30,02,00,8.40
2016,05,30,02,01,8.40
2016,05,30,02,02,8.40
2016,05,30,02,03,8.30
2016,05,30,02,04,8.40
2016,05,30,02,05,8.40
2016,05,30,02,06,8.40
2016,05,30,02,07,8.40
2016,05,30,02,08,8.40
2016,05,30,02,09,8.40
2016,05,30,02,10,8.40
2016,05,30,02,11,8.40
2016,05,30,02,12,8.40
2016,05,30,02,13,8.40
2016,05,30,02,14,8.40
2016,05,30,02,15,8.40
2016,05,30,02,16,8.40
2016,05,30,02,17,8.40
2016,05,30,02,18,8.40
2016,05,30,02,19,8.40
2016,05,30,02,20,8.50
2016,05,30,02,21,8.50
2016,05,30,02,22,8.50
2016,05,30,02,23,8.50
2016,05,30,02,24,8.50
2016,05,30,02,25,8.50
2016,05,30,02,26,8.50
2016,05,30,02,27,8.50
2016,05,30,02,28,8.50
2016,05,30,02,29,8.50
2016,05,30,02,30,8.50
2016,05,30,02,31,8.60
2016,05,30,02,32,8.60
2016,05,30,02,33,8.60
2016,05,30,02,34,8.60
2016,05,30,02,35,8.60
2016,05,30,02,36,8.60
2016,05,30,02,37,8.60
2016,05,30,02,38,8.60
2016,05,30,02,39,8.60
2016,05,30,02,40,8.60
2016,05,30,02,41,8.70
2016,05,30,02,42,8.70
2016,05,30,02,43,8.70
2016,05,30,02,44,8.70
2016,05,30,02,45,8.70
2016,05,30,02,46,8.70
2016,05,30,02,47,8.70
2016,05,30,02,48,8.70
2016,05,30,02,49,8.70
2016,05,30,02,50,8.80
2016,05,30,02,51,8.80
2016,05,30,02,52,8.80
2016,05,30,02,53,8.80
2016,05,30,02,54,8.80
2016,05,30,02,55,8.80
2016,05,30,02,56,8.80
2016,05,30,02,57,8.70
2016,05,30,02,58,8.70
2016,05,30,02,59,8.70
2016,05,30,03,00,8.70
2016,05,30,03,01,8.70
2016,05,30,03,02,8.70
2016,05,30,03,03,8.70
2016,05,30,03,04,8.70
2016,05,30,03,05,8.70
2016,05,30,03,06,8.70
2016,05,30,03,07,8.70
2016,05,30,03,08,8.70
2016,05,30,03,09,8.70
2016,05,30,03,10,8.70
2016,05,30,03,11,8.70
2016,05,30,03,12,8.70
2016,05,30,03,13,8.60
2016,05,30,03,14,8.60
2016,05,30,03,15,8.60
2016,05,30,03,16,8.60
2016,05,30,03,17,8.60
2016,05,30,03,18,8.50
2016,05,30,03,19,8.50
2016,05,30,03,20,8.50
2016,05,30,03,21,8.50
2016,05,30,03,22,8.50
2016,05,30,03,23,8.50
2016,05,30,03,24,8.50
2016,05,30,03,25,8.40
2016,05,30,03,26,8.40
2016,05,30,03,27,8.40
2016,05,30,03,28,8.40
2016,05,30,03,29,8.30
2016,05,30,03,30,8.30
2016,05,30,03,31,8.30
2016,05,30,03,32,8.30
2016,05,30,03,33,8.30
2016,05,30,03,34,8.20
2016,05,30,03,35,8.20
2016,05,30,03,36,8.20
2016,05,30,03,37,8.20
2016,05,30,03,38,8.10
2016,05,30,03,39,8.10
2016,05,30,03,40,8.10
2016,05,30,03,41,8.10
2016,05,30,03,42,8.10
2016,05,30,03,43,8.00
2016,05,30,03,44,8.00
2016,05,30,03,45,8.00
2016,05,30,03,46,8.00
2016,05,30,03,47,8.00
2016,05,30,03,48,7.90
2016,05,30,03,49,7.90
2016,05,30,03,50,7.90
2016,05,30,03,51,7.90
2016,05,30,03,52,7.90
2016,05,30,03,53,7.80
2016,05,30,03,54,7.80
2016,05,30,03,55,7.80
2016,05,30,03,56,7.80
2016,05,30,03,57,7.80
2016,05,30,03,58,7.80
2016,05,30,03,59,7.80
2016,05,30,04,00,7.80
2016,05,30,04,01,7.70
2016,05,30,04,02,7.70
2016,05,30,04,03,7.70
2016,05,30,04,04,7.70
2016,05,30,04,05,7.70
2016,05,30,04,06,7.70
2016,05,30,04,07,7.60
2016,05,30,04,08,7.60
2016,05,30,04,09,7.60
2016,05,30,04,10,7.60
2016,05,30,04,11,7.60
2016,05,30,04,12,7.60
2016,05,30,04,13,7.60
2016,05,30,04,14,7.60
2016,05,30,04,15,7.60
2016,05,30,04,16,7.50
2016,05,30,04,17,7.60
2016,05,30,04,18,7.50
2016,05,30,04,19,7.50
2016,05,30,04,20,7.50
2016,05,30,04,21,7.50
2016,05,30,04,22,7.50
2016,05,30,04,23,7.40
2016,05,30,04,24,7.40
2016,05,30,04,25,7.40
2016,05,30,04,26,7.40
2016,05,30,04,27,7.30
2016,05,30,04,28,7.30
2016,05,30,04,29,7.30
2016,05,30,04,30,7.30
2016,05,30,04,31,7.30
2016,05,30,04,32,7.30
2016,05,30,04,33,7.30
2016,05,30,04,34,7.30
2016,05,30,04,35,7.20
2016,05,30,04,36,7.20
2016,05,30,04,37,7.20
2016,05,30,04,38,7.20
2016,05,30,04,39,7.20
2016,05,30,04,40,7.20
2016,05,30,04,41,7.20
2016,05,30,04,42,7.20
2016,05,30,04,43,7.10
2016,05,30,04,44,7.10
2016,05,30,04,45,7.10
2016,05,30,04,46,7.10
2016,05,30,04,47,7.10
2016,05,30,04,48,7.10
2016,05,30,04,49,7.00
2016,05,30,04,50,7.00
2016,05,30,04,51,7.00
2016,05,30,04,52,7.00
2016,05,30,04,53,7.00
2016,05,30,04,54,6.90
2016,05,30,04,55,6.90
2016,05,30,04,56,6.90
2016,05,30,04,57,6.90
2016,05,30,04,58,6.90
2016,05,30,04,59,6.90
2016,05,30,05,00,6.90
2016,05,30,05,01,6.90
2016,05,30,05,02,6.80
2016,05,30,05,03,6.80
2016,05,30,05,04,6.80
2016,05,30,05,05,6.80
2016,05,30,05,06,6.80
2016,05,30,05,07,6.80
2016,05,30,05,08,6.70
2016,05,30,05,09,6.70
2016,05,30,05,10,6.70
2016,05,30,05,11,6.70
2016,05,30,05,12,6.70
2016,05,30,05,13,6.70
2016,05,30,05,14,6.60
2016,05,30,05,15,6.60
2016,05,30,05,16,6.60
2016,05,30,05,17,6.60
2016,05,30,05,18,6.60
2016,05,30,05,19,6.60
2016,05,30,05,20,6.60
2016,05,30,05,21,6.60
2016,05,30,05,22,6.60
2016,05,30,05,23,6.50
2016,05,30,05,24,6.50
2016,05,30,05,25,6.50
2016,05,30,05,26,6.50
2016,05,30,05,27,6.50
2016,05,30,05,28,6.50
2016,05,30,05,29,6.50
2016,05,30,05,30,6.50
2016,05,30,05,31,6.50
2016,05,30,05,32,6.40
2016,05,30,05,33,6.40
2016,05,30,05,34,6.40
2016,05,30,05,35,6.40
2016,05,30,05,36,6.40
2016,05,30,05,37,6.40
2016,05,30,05,38,6.40
2016,05,30,05,39,6.40
2016,05,30,05,40,6.40
2016,05,30,05,41,6.40
2016,05,30,05,42,6.40
2016,05,30,05,43,6.40
2016,05,30,05,44,6.40
2016,05,30,05,45,6.30
2016,05,30,05,46,6.30
2016,05,30,05,47,6.30
2016,05,30,05,48,6.30
2016,05,30,05,49,6.30
2016,05,30,05,50,6.30
2016,05,30,05,51,6.30
2016,05,30,05,52,6.30
2016,05,30,05,53,6.30
2016,05,30,05,54,6.30
2016,05,30,05,55,6.30
2016,05,30,05,56,6.30
2016,05,30,05,57,6.30
2016,05,30,05,58,6.30
2016,05,30,05,59,6.30
2016,05,30,06,00,6.30
2016,05,30,06,01,6.30
2016,05,30,06,02,6.30
2016,05,30,06,03,6.30
2016,05,30,06,04,6.30
2016,05,30,06,05,6.30
2016,05,30,06,06,6.30
2016,05,30,06,07,6.40
2016,05,30,06,08,6.40
2016,05,30,06,09,6.40
2016,05,30,06,10,6.40
2016,05,30,06,11,6.40
2016,05,30,06,12,6.40
2016,05,30,06,13,6.50
2016,05,30,06,14,6.50
2016,05,30,06,15,6.50
2016,05,30,06,16,6.50
2016,05,30,06,17,6.50
2016,05,30,06,18,6.60
2016,05,30,06,19,6.60
2016,05,30,06,20,6.60
2016,05,30,06,21,6.60
2016,05,30,06,22,6.70
2016,05,30,06,23,6.70
2016,05,30,06,24,6.70
2016,05,30,06,25,6.70
2016,05,30,06,26,6.80
2016,05,30,06,27,6.80
2016,05,30,06,28,6.80
2016,05,30,06,29,6.90
2016,05,30,06,30,6.90
2016,05,30,06,31,6.90
2016,05,30,06,32,6.90
2016,05,30,06,33,7.00
2016,05,30,06,34,7.00
2016,05,30,06,35,7.10
2016,05,30,06,36,7.10
2016,05,30,06,37,7.10
2016,05,30,06,38,7.20
2016,05,30,06,39,7.20
2016,05,30,06,40,7.20
2016,05,30,06,41,7.30
2016,05,30,06,42,7.30
2016,05,30,06,43,7.30
2016,05,30,06,44,7.30
2016,05,30,06,45,7.40
2016,05,30,06,46,7.40
2016,05,30,06,47,7.50
2016,05,30,06,48,7.60
2016,05,30,06,49,7.60
2016,05,30,06,50,7.70
2016,05,30,06,51,7.70
2016,05,30,06,52,7.80
2016,05,30,06,53,7.80
2016,05,30,06,54,7.90
2016,05,30,06,55,7.90
2016,05,30,06,56,8.00
2016,05,30,06,57,8.10
2016,05,30,06,58,8.10
2016,05,30,06,59,8.20
2016,05,30,07,00,8.20
2016,05,30,07,01,8.30
2016,05,30,07,02,8.30
2016,05,30,07,03,8.30
2016,05,30,07,04,8.40
2016,05,30,07,05,8.40
2016,05,30,07,06,8.40
2016,05,30,07,07,8.40
2016,05,30,07,08,8.50
2016,05,30,07,09,8.50
2016,05,30,07,10,8.60
2016,05,30,07,11,8.60
2016,05,30,07,12,8.70
2016,05,30,07,13,8.70
2016,05,30,07,14,8.80
2016,05,30,07,15,8.90
2016,05,30,07,16,8.90
2016,05,30,07,17,9.00
2016,05,30,07,18,9.10
2016,05,30,07,19,9.20
2016,05,30,07,20,9.30
2016,05,30,07,21,9.40
2016,05,30,07,22,9.50
2016,05,30,07,23,9.60
2016,05,30,07,24,9.70
2016,05,30,07,25,9.80
2016,05,30,07,26,9.90
2016,05,30,07,27,10.00
2016,05,30,07,28,10.10
2016,05,30,07,29,10.10
2016,05,30,07,30,10.20
2016,05,30,07,31,10.30
2016,05,30,07,32,10.30
2016,05,30,07,33,10.40
2016,05,30,07,34,10.50
2016,05,30,07,35,10.60
2016,05,30,07,36,10.70
2016,05,30,07,37,10.80
2016,05,30,07,38,10.90
2016,05,30,07,39,11.00
2016,05,30,07,40,11.10
2016,05,30,07,41,11.10
2016,05,30,07,42,11.30
2016,05,30,07,43,11.40
2016,05,30,07,44,11.50
2016,05,30,07,45,11.60
2016,05,30,07,46,11.60
2016,05,30,07,47,11.70
2016,05,30,07,48,11.70
2016,05,30,07,49,11.80
2016,05,30,07,50,11.80
2016,05,30,07,51,11.90
2016,05,30,07,52,12.00
2016,05,30,07,53,12.00
2016,05,30,07,54,12.10
2016,05,30,07,55,12.10
2016,05,30,07,56,12.20
2016,05,30,07,57,12.20
2016,05,30,07,58,12.30
2016,05,30,07,59,12.40
2016,05,30,08,00,12.40
2016,05,30,08,01,12.40
2016,05,30,08,02,12.40
2016,05,30,08,03,12.50
2016,05,30,08,04,12.50
2016,05,30,08,05,12.50
2016,05,30,08,06,12.60
2016,05,30,08,07,12.60
2016,05,30,08,08,12.70
2016,05,30,08,09,12.70
2016,05,30,08,10,12.70
2016,05,30,08,11,12.80
2016,05,30,08,12,12.80
2016,05,30,08,13,12.90
2016,05,30,08,14,12.90
2016,05,30,08,15,12.90
2016,05,30,08,16,12.90
2016,05,30,08,17,13.00
2016,05,30,08,18,13.00
2016,05,30,08,19,13.10
2016,05,30,08,20,13.10
2016,05,30,08,21,13.10
2016,05,30,08,22,13.10
2016,05,30,08,23,13.10
2016,05,30,08,24,13.20
2016,05,30,08,25,13.20
2016,05,30,08,26,13.30
2016,05,30,08,27,13.30
2016,05,30,08,28,13.40
2016,05,30,08,29,13.50
2016,05,30,08,30,13.50
2016,05,30,08,31,13.40
2016,05,30,08,32,13.50
2016,05,30,08,33,13.50
2016,05,30,08,34,13.60
2016,05,30,08,35,13.60
2016,05,30,08,36,13.60
2016,05,30,08,37,13.60
2016,05,30,08,38,13.50
2016,05,30,08,39,13.50
2016,05,30,08,40,13.50
2016,05,30,08,41,13.50
2016,05,30,08,42,13.50
2016,05,30,08,43,13.50
2016,05,30,08,44,13.60
2016,05,30,08,45,13.60
2016,05,30,08,46,13.60
2016,05,30,08,47,13.60
2016,05,30,08,48,13.60
2016,05,30,08,49,13.60
2016,05,30,08,50,13.70
2016,05,30,08,51,13.70
2016,05,30,08,52,13.70
2016,05,30,08,53,13.60
2016,05,30,08,54,13.60
2016,05,30,08,55,13.60
2016,05,30,08,56,13.70
2016,05,30,08,57,13.70
2016,05,30,08,58,13.80
2016,05,30,08,59,13.80
2016,05,30,09,00,13.80
2016,05,30,09,01,13.90
2016,05,30,09,02,13.90
2016,05,30,09,03,13.90
2016,05,30,09,04,14.00
2016,05,30,09,05,14.00
2016,05,30,09,06,14.10
2016,05,30,09,07,14.20
2016,05,30,09,08,14.20
2016,05,30,09,09,14.20
2016,05,30,09,10,14.30
2016,05,30,09,11,14.30
2016,05,30,09,12,14.40
2016,05,30,09,13,14.40
2016,05,30,09,14,14.40
2016,05,30,09,15,14.30
2016,05,30,09,16,14.20
2016,05,30,09,17,14.20
2016,05,30,09,18,14.10
2016,05,30,09,19,14.10
2016,05,30,09,20,14.10
2016,05,30,09,21,14.10
2016,05,30,09,22,14.20
2016,05,30,09,23,14.20
2016,05,30,09,24,14.20
2016,05,30,09,25,14.10
2016,05,30,09,26,14.00
2016,05,30,09,27,14.00
2016,05,30,09,28,14.10
2016,05,30,09,29,14.10
2016,05,30,09,30,14.20
2016,05,30,09,31,14.20
2016,05,30,09,32,14.30
2016,05,30,09,33,14.30
2016,05,30,09,34,14.40
2016,05,30,09,35,14.40
2016,05,30,09,36,14.50
2016,05,30,09,37,14.60
2016,05,30,09,38,14.60
2016,05,30,09,39,14.70
2016,05,30,09,40,14.70
2016,05,30,09,41,14.70
2016,05,30,09,42,14.80
2016,05,30,09,43,14.80
2016,05,30,09,44,14.80
2016,05,30,09,45,14.80
2016,05,30,09,46,14.80
2016,05,30,09,47,14.80
2016,05,30,09,48,14.90
2016,05,30,09,49,14.90
2016,05,30,09,50,14.90
2016,05,30,09,51,15.00
2016,05,30,09,52,15.00
2016,05,30,09,53,15.00
2016,05,30,09,54,14.90
2016,05,30,09,55,14.90
2016,05,30,09,56,14.90
2016,05,30,09,57,14.90
2016,05,30,09,58,14.90
2016,05,30,09,59,14.90
2016,05,30,10,00,14.90
2016,05,30,10,01,14.90
2016,05,30,10,02,14.90
2016,05,30,10,03,14.90
2016,05,30,10,04,14.80
2016,05,30,10,05,14.80
2016,05,30,10,06,14.80
2016,05,30,10,07,14.80
2016,05,30,10,08,14.70
2016,05,30,10,09,14.60
2016,05,30,10,10,14.60
2016,05,30,10,11,14.40
2016,05,30,10,12,14.40
2016,05,30,10,13,14.30
2016,05,30,10,14,14.40
2016,05,30,10,15,14.40
2016,05,30,10,16,14.50
2016,05,30,10,17,14.50
2016,05,30,10,18,14.50
2016,05,30,10,19,14.50
2016,05,30,10,20,14.40
2016,05,30,10,21,14.40
2016,05,30,10,22,14.40
2016,05,30,10,23,14.40
2016,05,30,10,24,14.50
2016,05,30,10,25,14.50
2016,05,30,10,26,14.60
2016,05,30,10,27,14.60
2016,05,30,10,28,14.70
2016,05,30,10,29,14.70
2016,05,30,10,30,14.70
2016,05,30,10,31,14.70
2016,05,30,10,32,14.60
2016,05,30,10,33,14.50
2016,05,30,10,34,14.40
2016,05,30,10,35,14.30
2016,05,30,10,36,14.30
2016,05,30,10,37,14.30
2016,05,30,10,38,14.30
2016,05,30,10,39,14.30
2016,05,30,10,40,14.40
2016,05,30,10,41,14.50
2016,05,30,10,42,14.60
2016,05,30,10,43,14.70
2016,05,30,10,44,14.80
2016,05,30,10,45,14.90
2016,05,30,10,46,14.90
2016,05,30,10,47,15.00
2016,05,30,10,48,14.90
2016,05,30,10,49,15.00
2016,05,30,10,50,15.00
2016,05,30,10,51,15.10
2016,05,30,10,52,15.10
2016,05,30,10,53,15.20
2016,05,30,10,54,15.30
2016,05,30,10,55,15.40
2016,05,30,10,56,15.50
2016,05,30,10,57,15.50
2016,05,30,10,58,15.40
2016,05,30,10,59,15.40
2016,05,30,11,00,15.40
2016,05,30,11,01,15.40
2016,05,30,11,02,15.40
2016,05,30,11,03,15.50
2016,05,30,11,04,15.50
2016,05,30,11,05,15.50
2016,05,30,11,06,15.60
2016,05,30,11,07,15.60
2016,05,30,11,08,15.60
2016,05,30,11,09,15.60
2016,05,30,11,10,15.60
2016,05,30,11,11,15.60
2016,05,30,11,12,15.70
2016,05,30,11,13,15.70
2016,05,30,11,14,15.70
2016,05,30,11,15,15.70
2016,05,30,11,16,15.80
2016,05,30,11,17,15.80
2016,05,30,11,18,15.70
2016,05,30,11,19,15.60
2016,05,30,11,20,15.60
2016,05,30,11,21,15.60
2016,05,30,11,22,15.60
2016,05,30,11,23,15.60
2016,05,30,11,24,15.60
2016,05,30,11,25,15.60
2016,05,30,11,26,15.60
2016,05,30,11,27,15.60
2016,05,30,11,28,15.60
2016,05,30,11,29,15.60
2016,05,30,11,30,15.70
2016,05,30,11,31,15.60
2016,05,30,11,32,15.50
2016,05,30,11,33,15.50
2016,05,30,11,34,15.40
2016,05,30,11,35,15.40
2016,05,30,11,36,15.30
2016,05,30,11,37,15.20
2016,05,30,11,38,15.00
2016,05,30,11,39,14.90
2016,05,30,11,40,14.90
2016,05,30,11,41,14.90
2016,05,30,11,42,14.80
2016,05,30,11,43,14.90
2016,05,30,11,44,14.80
2016,05,30,11,45,14.80
2016,05,30,11,46,14.80
2016,05,30,11,47,14.90
2016,05,30,11,48,14.80
2016,05,30,11,49,14.80
2016,05,30,11,50,14.80
2016,05,30,11,51,14.80
2016,05,30,11,52,14.80
2016,05,30,11,53,14.80
2016,05,30,11,54,14.80
2016,05,30,11,55,14.80
2016,05,30,11,56,14.90
2016,05,30,11,57,14.90
2016,05,30,11,58,14.90
2016,05,30,11,59,14.90
2016,05,30,12,00,14.90
2016,05,30,12,01,14.80
2016,05,30,12,02,14.70
2016,05,30,12,03,14.60
2016,05,30,12,04,14.60
2016,05,30,12,05,14.50
2016,05,30,12,06,14.60
2016,05,30,12,07,14.60
2016,05,30,12,08,14.60
2016,05,30,12,09,14.60
2016,05,30,12,10,14.60
2016,05,30,12,11,14.60
2016,05,30,12,12,14.70
2016,05,30,12,13,14.70
2016,05,30,12,14,14.80
2016,05,30,12,15,14.80
2016,05,30,12,16,14.80
2016,05,30,12,17,14.90
2016,05,30,12,18,15.00
2016,05,30,12,19,15.10
2016,05,30,12,20,15.20
2016,05,30,12,21,15.30
2016,05,30,12,22,15.30
2016,05,30,12,23,15.30
2016,05,30,12,24,15.20
2016,05,30,12,25,15.20
2016,05,30,12,26,15.10
2016,05,30,12,27,15.10
2016,05,30,12,28,15.00
2016,05,30,12,29,15.00
2016,05,30,12,30,15.00
2016,05,30,12,31,15.10
2016,05,30,12,32,15.20
2016,05,30,12,33,15.30
2016,05,30,12,34,15.30
2016,05,30,12,35,15.40
2016,05,30,12,36,15.40
2016,05,30,12,37,15.40
2016,05,30,12,38,15.40
2016,05,30,12,39,15.40
2016,05,30,12,40,15.40
2016,05,30,12,41,15.40
2016,05,30,12,42,15.40
2016,05,30,12,43,15.40
2016,05,30,12,44,15.40
2016,05,30,12,45,15.40
2016,05,30,12,46,15.40
2016,05,30,12,47,15.50
2016,05,30,12,48,15.60
2016,05,30,12,49,15.60
2016,05,30,12,50,15.50
2016,05,30,12,51,15.50
2016,05,30,12,52,15.60
2016,05,30,12,53,15.60
2016,05,30,12,54,15.60
2016,05,30,12,55,15.60
2016,05,30,12,56,15.60
2016,05,30,12,57,15.50
2016,05,30,12,58,15.50
2016,05,30,12,59,15.50
2016,05,30,13,00,15.50
2016,05,30,13,01,15.50
2016,05,30,13,02,15.60
2016,05,30,13,03,15.60
2016,05,30,13,04,15.60
2016,05,30,13,05,15.60
2016,05,30,13,06,15.70
2016,05,30,13,07,15.70
2016,05,30,13,08,15.80
2016,05,30,13,09,15.90
2016,05,30,13,10,16.00
2016,05,30,13,11,16.10
2016,05,30,13,12,16.10
2016,05,30,13,13,16.20
2016,05,30,13,14,16.30
2016,05,30,13,15,16.30
2016,05,30,13,16,16.40
2016,05,30,13,17,16.40
2016,05,30,13,18,16.40
2016,05,30,13,19,16.40
2016,05,30,13,20,16.40
2016,05,30,13,21,16.50
2016,05,30,13,22,16.60
2016,05,30,13,23,16.60
2016,05,30,13,24,16.70
2016,05,30,13,25,16.80
2016,05,30,13,26,16.90
2016,05,30,13,27,16.90
2016,05,30,13,28,17.00
2016,05,30,13,29,17.00
2016,05,30,13,30,17.00
2016,05,30,13,31,17.10
2016,05,30,13,32,17.10
2016,05,30,13,33,17.10
2016,05,30,13,34,17.10
2016,05,30,13,35,17.10
2016,05,30,13,36,17.10
2016,05,30,13,37,17.10
2016,05,30,13,38,17.10
2016,05,30,13,39,17.10
2016,05,30,13,40,17.00
2016,05,30,13,41,17.00
2016,05,30,13,42,16.90
2016,05,30,13,43,16.80
2016,05,30,13,44,16.70
2016,05,30,13,45,16.60
2016,05,30,13,46,16.50
2016,05,30,13,47,16.40
2016,05,30,13,48,16.30
2016,05,30,13,49,16.30
2016,05,30,13,50,16.30
2016,05,30,13,51,16.40
2016,05,30,13,52,16.50
2016,05,30,13,53,16.60
2016,05,30,13,54,16.60
2016,05,30,13,55,16.60
2016,05,30,13,56,16.70
2016,05,30,13,57,16.90
2016,05,30,13,58,17.00
2016,05,30,13,59,17.00
2016,05,30,14,00,17.10
2016,05,30,14,01,17.20
2016,05,30,14,02,17.30
2016,05,30,14,03,17.40
2016,05,30,14,04,17.40
2016,05,30,14,05,17.40
2016,05,30,14,06,17.50
2016,05,30,14,07,17.50
2016,05,30,14,08,17.50
2016,05,30,14,09,17.50
2016,05,30,14,10,17.50
2016,05,30,14,11,17.60
2016,05,30,14,12,17.60
2016,05,30,14,13,17.60
2016,05,30,14,14,17.50
2016,05,30,14,15,17.40
2016,05,30,14,16,17.30
2016,05,30,14,17,17.20
2016,05,30,14,18,17.00
2016,05,30,14,19,16.90
2016,05,30,14,20,16.80
2016,05,30,14,21,16.80
2016,05,30,14,22,16.70
2016,05,30,14,23,16.70
2016,05,30,14,24,16.80
2016,05,30,14,25,16.80
2016,05,30,14,26,16.80
2016,05,30,14,27,16.80
2016,05,30,14,28,16.80
2016,05,30,14,29,16.70
2016,05,30,14,30,16.70
2016,05,30,14,31,16.60
2016,05,30,14,32,16.60
2016,05,30,14,33,16.60
2016,05,30,14,34,16.60
2016,05,30,14,35,16.60
2016,05,30,14,36,16.70
2016,05,30,14,37,16.70
2016,05,30,14,38,16.70
2016,05,30,14,39,16.70
2016,05,30,14,40,16.80
2016,05,30,14,41,16.80
2016,05,30,14,42,16.80
2016,05,30,14,43,16.90
2016,05,30,14,44,17.00
2016,05,30,14,45,17.10
2016,05,30,14,46,17.20
2016,05,30,14,47,17.30
2016,05,30,14,48,17.40
2016,05,30,14,49,17.40
2016,05,30,14,50,17.40
2016,05,30,14,51,17.40
2016,05,30,14,52,17.40
2016,05,30,14,53,17.40
2016,05,30,14,54,17.40
2016,05,30,14,55,17.40
2016,05,30,14,56,17.40
2016,05,30,14,57,17.50
2016,05,30,14,58,17.40
2016,05,30,14,59,17.40
2016,05,30,15,00,17.40
2016,05,30,15,01,17.30
2016,05,30,15,02,17.30
2016,05,30,15,03,17.30
2016,05,30,15,04,17.40
2016,05,30,15,05,17.50
2016,05,30,15,06,17.50
2016,05,30,15,07,17.50
2016,05,30,15,08,17.40
2016,05,30,15,09,17.40
2016,05,30,15,10,17.30
2016,05,30,15,11,17.20
2016,05,30,15,12,17.10
2016,05,30,15,13,17.10
2016,05,30,15,14,17.10
2016,05,30,15,15,17.10
2016,05,30,15,16,17.10
2016,05,30,15,17,17.10
2016,05,30,15,18,17.20
2016,05,30,15,19,17.20
2016,05,30,15,20,17.20
2016,05,30,15,21,17.20
2016,05,30,15,22,17.20
2016,05,30,15,23,17.20
2016,05,30,15,24,17.30
2016,05,30,15,25,17.30
2016,05,30,15,26,17.40
2016,05,30,15,27,17.40
2016,05,30,15,28,17.50
2016,05,30,15,29,17.60
2016,05,30,15,30,17.60
2016,05,30,15,31,17.60
2016,05,30,15,32,17.60
2016,05,30,15,33,17.60
2016,05,30,15,34,17.60
2016,05,30,15,35,17.60
2016,05,30,15,36,17.60
2016,05,30,15,37,17.60
2016,05,30,15,38,17.60
2016,05,30,15,39,17.60
2016,05,30,15,40,17.60
2016,05,30,15,41,17.60
2016,05,30,15,42,17.60
2016,05,30,15,43,17.60
2016,05,30,15,44,17.60
2016,05,30,15,45,17.70
2016,05,30,15,46,17.70
2016,05,30,15,47,17.70
2016,05,30,15,48,17.70
2016,05,30,15,49,17.70
2016,05,30,15,50,17.80
2016,05,30,15,51,17.80
2016,05,30,15,52,17.80
2016,05,30,15,53,17.80
2016,05,30,15,54,17.80
2016,05,30,15,55,17.90
2016,05,30,15,56,17.90
2016,05,30,15,57,17.90
2016,05,30,15,58,17.90
2016,05,30,15,59,17.80
2016,05,30,16,00,17.90
2016,05,30,16,01,17.90
2016,05,30,16,02,17.90
2016,05,30,16,03,17.90
2016,05,30,16,04,17.90
2016,05,30,16,05,17.90
2016,05,30,16,06,17.90
2016,05,30,16,07,17.90
2016,05,30,16,08,18.00
2016,05,30,16,09,18.00
2016,05,30,16,10,18.00
2016,05,30,16,11,18.10
2016,05,30,16,12,18.10
2016,05,30,16,13,18.10
2016,05,30,16,14,18.10
2016,05,30,16,15,18.10
2016,05,30,16,16,18.10
2016,05,30,16,17,18.10
2016,05,30,16,18,18.10
2016,05,30,16,19,18.10
2016,05,30,16,20,18.10
2016,05,30,16,21,18.10
2016,05,30,16,22,18.10
2016,05,30,16,23,18.10
2016,05,30,16,24,18.10
2016,05,30,16,25,18.10
2016,05,30,16,26,18.10
2016,05,30,16,27,18.10
2016,05,30,16,28,18.10
2016,05,30,16,29,18.10
2016,05,30,16,30,18.00
2016,05,30,16,31,18.00
2016,05,30,16,32,17.90
2016,05,30,16,33,17.90
2016,05,30,16,34,17.80
2016,05,30,16,35,17.80
2016,05,30,16,36,17.90
2016,05,30,16,37,17.90
2016,05,30,16,38,17.90
2016,05,30,16,39,18.00
2016,05,30,16,40,18.00
2016,05,30,16,41,18.10
2016,05,30,16,42,18.10
2016,05,30,16,43,18.20
2016,05,30,16,44,18.20
2016,05,30,16,45,18.20
2016,05,30,16,46,18.20
2016,05,30,16,47,18.30
2016,05,30,16,48,18.30
2016,05,30,16,49,18.30
2016,05,30,16,50,18.30
2016,05,30,16,51,18.40
2016,05,30,16,52,18.50
2016,05,30,16,53,18.60
2016,05,30,16,54,18.60
2016,05,30,16,55,18.70
2016,05,30,16,56,18.70
2016,05,30,16,57,18.70
2016,05,30,16,58,18.60
2016,05,30,16,59,18.60
2016,05,30,17,00,18.60
2016,05,30,17,01,18.60
2016,05,30,17,02,18.60
2016,05,30,17,03,18.60
2016,05,30,17,04,18.60
2016,05,30,17,05,18.60
2016,05,30,17,06,18.70
2016,05,30,17,07,18.70
2016,05,30,17,08,18.80
2016,05,30,17,09,18.80
2016,05,30,17,10,18.90
2016,05,30,17,11,18.90
2016,05,30,17,12,18.90
2016,05,30,17,13,18.90
2016,05,30,17,14,18.90
2016,05,30,17,15,19.00
2016,05,30,17,16,19.10
2016,05,30,17,17,19.10
2016,05,30,17,18,19.10
2016,05,30,17,19,19.00
2016,05,30,17,20,19.00
2016,05,30,17,21,18.90
2016,05,30,17,22,18.90
2016,05,30,17,23,18.90
2016,05,30,17,24,18.80
2016,05,30,17,25,18.80
2016,05,30,17,26,18.90
2016,05,30,17,27,18.90
2016,05,30,17,28,18.90
2016,05,30,17,29,19.00
2016,05,30,17,30,19.00
2016,05,30,17,31,19.10
2016,05,30,17,32,19.10
2016,05,30,17,33,19.10
2016,05,30,17,34,19.10
2016,05,30,17,35,19.00
2016,05,30,17,36,19.00
2016,05,30,17,37,19.00
2016,05,30,17,38,19.00